Location: Unspecified
(47.4992°N, 121.7766°W)
Time: 10:49:20
(UTC-07:00)

CZ-3 Stage 3 - Visible Passes

Search period start: 23 September 2019 00:00
Search period end: 03 October 2019 00:00
Orbit: 436 x 34755 km, 30.5° (Epoch: 22 September)

Date Brightness Start Highest point End Pass type
(mag) Time Alt. Az. Time Alt. Az. Time Alt. Az.
24 Sep 7.0 20:20:11 10° SW 20:30:28 17° S 21:08:12 10° SSE visible
27 Sep 7.1 20:10:27 10° SW 20:20:21 16° S 20:53:07 10° SSE visible
30 Sep 7.1 20:00:47 10° SW 20:10:15 15° S 20:38:21 10° SSE visible
